Location: Unspecified
(47.1121°N, 116.3927°W)
Time: 18:59:58
(UTC-08:00)

Okean 3 - Visible Passes

Search period start: 20 November 2017 00:00
Search period end: 30 November 2017 00:00
Orbit: 576 x 603 km, 82.5° (Epoch: 20 November)

Date Brightness Start Highest point End Pass type
(mag) Time Alt. Az. Time Alt. Az. Time Alt. Az.
20 Nov 6.2 05:19:35 10° NNE 05:22:29 18° ENE 05:25:22 10° ESE visible
21 Nov 5.7 05:27:17 10° NNE 05:30:48 25° ENE 05:34:17 10° SE visible
22 Nov 5.1 05:35:11 10° N 05:39:04 35° ENE 05:42:57 10° SE visible
23 Nov 4.3 05:43:11 10° N 05:47:18 51° ENE 05:51:25 10° SSE visible
24 Nov 3.6 05:51:16 10° N 05:55:30 76° E 05:59:43 10° SSE visible
25 Nov 6.5 04:24:05 10° NE 04:25:51 12° ENE 04:27:37 10° E visible
25 Nov 3.4 05:59:26 10° NNW 06:03:39 73° W 06:07:52 10° S visible
26 Nov 6.2 04:31:23 10° NNE 04:34:13 17° ENE 04:37:03 10° ESE visible
26 Nov 3.7 06:07:41 10° NNW 06:11:46 49° W 06:15:51 10° SSW visible
26 Nov 6.0 18:37:02 10° S 18:37:09 11° S 18:37:09 11° S visible
27 Nov 5.7 04:39:04 10° NNE 04:42:32 24° ENE 04:46:00 10° SE visible
27 Nov 4.2 06:16:03 10° NNW 06:19:51 33° W 06:23:40 10° SSW visible
27 Nov 5.5 18:45:12 10° SSW 18:46:26 19° SSW 18:46:26 19° SSW visible
28 Nov 5.1 04:46:56 10° N 04:50:49 34° ENE 04:54:41 10° SE visible
28 Nov 4.6 06:24:32 10° NW 06:27:54 23° W 06:31:15 10° SW visible
28 Nov 5.3 17:18:07 10° ESE 17:19:03 13° ESE 17:19:03 13° ESE visible
28 Nov 5.2 18:53:31 10° SSW 18:55:40 27° SW 18:55:40 27° SW visible
29 Nov 4.4 04:54:55 10° N 04:59:03 49° ENE 05:03:10 10° SSE visible
29 Nov 4.6 17:25:25 10° SE 17:28:14 23° E 17:28:14 23° E visible
29 Nov 5.3 19:02:00 10° SW 19:04:51 29° W 19:04:51 29° W visible
